TOURFACTS.DK  
Stats and Facts from Tour de France.

Tour de France 2019 starts in 348 days
  Riders   Stages   Teams   Summits   Yearly  


 
Search by year

After 2018 - Stage 14:
 15000 starters.
  5163 different riders.
  639 teams.
  2246 stages.
  456 restdays.
  441957.60 km.
  5678 abandonnees.


Top 3
GC
Christopher Froome86:20:55
Rigoberto Urán86:21:49
Romain Bardet86:23:15
Climb
Warren Barguil169 pt.
Primoz Roglic80 pt.
Thomas De Gendt64 pt.
Sprint
Michael Matthews359 pt.
André Greipel234 pt.
Edvald Boasson Hagen220 pt.
Youth
Simon Yates86:27:09
Louis Meintjes86:29:15
Emanuel Buchmann86:54:16
Facts from Tour de France 1990
  |   Stages.  |   Stage winners.  |   Days in yellow  |   Average speed.  |   Route.  |   Teams.  |   All riders.  |   Rookies.  |  

  |   Withdrawls.  |   GC.  |   Polka  |   Green  |   White  |   Summits. (In tour)  |   Miscellaneous.  |  

Stage 2 on July 2nd. 1990
         Owning:    Steve Bauer    
Pick a stage:  Pro 1 2 3 4 5 6 7 8 9 10 11 12 13 14 15 16 17 18 19 20 21
From: Futuroscope    To: FuturoscopeDist:44.50 km.

Average speed for all riders in stage:  48,495 km./hr.
    Place:Name:Team:Time:Km/h:
NEDSteven RooksNLDPanasonic-Sportlife00:53:24  +  00:00:00=50,000 
URSViatcheslav EkimovNLDPanasonic-Sportlife00:53:24  +  00:00:00=50,000 
DDROlaf LudwigNLDPanasonic-Sportlife00:53:24  +  00:00:00=50,000 
4 BELGuy NulensNLDPanasonic-Sportlife00:53:24  +  00:00:00=50,000 
5 AUSAlan PeiperNLDPanasonic-Sportlife00:53:24  +  00:00:00=50,000 
6 BELEddy PlanckaertNLDPanasonic-Sportlife00:53:24  +  00:00:00=50,000 
7 BELMarc SergeantNLDPanasonic-Sportlife00:53:24  +  00:00:00=50,000 
8 BELEric Van LanckerNLDPanasonic-Sportlife00:53:24  +  00:00:00=50,000 
9 NEDJean-Paul van PoppelNLDPanasonic-Sportlife00:53:24  +  00:00:00=50,000 
10 NEDErik BreukinkNLDPDM-Concorde00:53:31  +  00:00:07=49,891 
11 ESPRaúl AlcaláNLDPDM-Concorde00:53:31  +  00:00:07=49,891 
12 DDRUwe AmplerNLDPDM-Concorde00:53:31  +  00:00:07=49,891 
13 BELRudy DhaenensNLDPDM-Concorde00:53:31  +  00:00:07=49,891 
14 IRLMartin EarleyNLDPDM-Concorde00:53:31  +  00:00:07=49,891 
15 NEDGert JakobsNLDPDM-Concorde00:53:31  +  00:00:07=49,891 
16 IRLSean KellyNLDPDM-Concorde00:53:31  +  00:00:07=49,891 
17 DDRUwe RaabNLDPDM-Concorde00:53:31  +  00:00:07=49,891 
18 NEDJos Van AertNLDPDM-Concorde00:53:31  +  00:00:07=49,891 
19 ESPMarino LejarretaESPO.N.C.E.00:53:46  +  00:00:22=49,659 
20 ESPEduardo ChozasESPO.N.C.E.00:53:46  +  00:00:22=49,659 
21 ESPHerminio ZabalaESPO.N.C.E.00:53:46  +  00:00:22=49,659 
22 ESPAnselmo FuerteESPO.N.C.E.00:53:46  +  00:00:22=49,659 
23 AUSStephen HodgeESPO.N.C.E.00:53:46  +  00:00:22=49,659 
24 ESPMiguel Angel MartinezESPO.N.C.E.00:53:46  +  00:00:22=49,659 
25 ESPMelchor MauriESPO.N.C.E.00:53:46  +  00:00:22=49,659 
26 ESPPello RuizESPO.N.C.E.00:53:46  +  00:00:22=49,659 
27 DENJohnny WeltzESPO.N.C.E.00:53:46  +  00:00:22=49,659 
28 IRLStephen RocheBELHistor-Sigma00:53:46  +  00:00:22=49,659 
29 FRALaurent BiondiBELHistor-Sigma00:53:46  +  00:00:22=49,659 
30 BELEtienne De WildeBELHistor-Sigma00:53:46  +  00:00:22=49,659 
31 BELPaul HaghedoorenBELHistor-Sigma00:53:46  +  00:00:22=49,659 
32 DENBrian HolmBELHistor-Sigma00:53:46  +  00:00:22=49,659 
33 DENSøren LilholtBELHistor-Sigma00:53:46  +  00:00:22=49,659 
34 FRAFrancis MoreauBELHistor-Sigma00:53:46  +  00:00:22=49,659 
35 BELWilfried PeetersBELHistor-Sigma00:53:46  +  00:00:22=49,659 
36 FRALaurent PillonBELHistor-Sigma00:53:46  +  00:00:22=49,659 
37 FRALaurent FignonFRACastorama-Raleigh00:53:57  +  00:00:33=49,490 
38 FRAVincent BarteauFRACastorama-Raleigh00:53:57  +  00:00:33=49,490 
39 FRAChristophe LavainneFRACastorama-Raleigh00:53:57  +  00:00:33=49,490 
40 FRALuc LeblancFRACastorama-Raleigh00:53:57  +  00:00:33=49,490 
41 FRAThierry MarieFRACastorama-Raleigh00:53:57  +  00:00:33=49,490 
42 FRAFabrice PhilipotFRACastorama-Raleigh00:53:57  +  00:00:33=49,490 
43 DENBjarne RiisFRACastorama-Raleigh00:53:57  +  00:00:33=49,490 
44 FRAGérard RuéFRACastorama-Raleigh00:53:57  +  00:00:33=49,490 
45 FRAPascal SimonFRACastorama-Raleigh00:53:57  +  00:00:33=49,490 
46 USAAndy HampstenUSA7-Eleven-Hoonved00:54:12  +  00:00:48=49,262 
47 USANorman AlvisUSA7-Eleven-Hoonved00:54:12  +  00:00:48=49,262 
48 CANSteve BauerUSA7-Eleven-Hoonved00:54:12  +  00:00:48=49,262 
49 USAAndrew BishopUSA7-Eleven-Hoonved00:54:12  +  00:00:48=49,262 
50 USARonald KiefelUSA7-Eleven-Hoonved00:54:12  +  00:00:48=49,262 
51 NORDag Otto LauritzenUSA7-Eleven-Hoonved00:54:12  +  00:00:48=49,262 
52 USADavis PhinneyUSA7-Eleven-Hoonved00:54:12  +  00:00:48=49,262 
53 USABob RollUSA7-Eleven-Hoonved00:54:12  +  00:00:48=49,262 
54 ENGSean YatesUSA7-Eleven-Hoonved00:54:12  +  00:00:48=49,262 
55 USAGreg LeMondFRAZ-Peugeot00:54:17  +  00:00:53=49,186 
56 FRAÉric BoyerFRAZ-Peugeot00:54:17  +  00:00:53=49,186 
57 FRABruno CornilletFRAZ-Peugeot00:54:17  +  00:00:53=49,186 
58 FRAGilbert Duclos-LassalleFRAZ-Peugeot00:54:17  +  00:00:53=49,186 
59 NORAtle KvålsvollFRAZ-Peugeot00:54:17  +  00:00:53=49,186 
60 FRAFrançois LemarchandFRAZ-Peugeot00:54:17  +  00:00:53=49,186 
61 SCORobert MillarFRAZ-Peugeot00:54:17  +  00:00:53=49,186 
62 FRARonan PensecFRAZ-Peugeot00:54:17  +  00:00:53=49,186 
63 FRAJerôme SimonFRAZ-Peugeot00:54:17  +  00:00:53=49,186 
64 NEDEdwig Van HooydonckNLDBuckler00:54:20  +  00:00:56=49,141 
65 NEDGerrit De VriesNLDBuckler00:54:20  +  00:00:56=49,141 
66 NEDFrans MaassenNLDBuckler00:54:20  +  00:00:56=49,141 
67 NEDJelle NijdamNLDBuckler00:54:20  +  00:00:56=49,141 
68 NEDToine PoelsNLDBuckler00:54:20  +  00:00:56=49,141 
69 NEDGerrit SolleveldNLDBuckler00:54:20  +  00:00:56=49,141 
70 NEDPatrick TolhoekNLDBuckler00:54:20  +  00:00:56=49,141 
71 BELEric VanderaerdenNLDBuckler00:54:20  +  00:00:56=49,141 
72 NEDPeter WinnenNLDBuckler00:54:20  +  00:00:56=49,141 
73 SUIPascal RichardCHEHelvetia-La Suisse00:54:39  +  00:01:15=48,856 
74 FRAGilles DelionCHEHelvetia-La Suisse00:54:39  +  00:01:15=48,856 
75 SUIMauro GianettiCHEHelvetia-La Suisse00:54:39  +  00:01:15=48,856 
76 SUIOthmar HäfligerCHEHelvetia-La Suisse00:54:39  +  00:01:15=48,856 
77 FRAJean-Claude LeclercqCHEHelvetia-La Suisse00:54:39  +  00:01:15=48,856 
78 SUIHans-Rüdi MärkiCHEHelvetia-La Suisse00:54:39  +  00:01:15=48,856 
79 NEDHenri MandersCHEHelvetia-La Suisse00:54:39  +  00:01:15=48,856 
80 SUINiki RüttimannCHEHelvetia-La Suisse00:54:39  +  00:01:15=48,856 
81 SUIGuido WinterbergCHEHelvetia-La Suisse00:54:39  +  00:01:15=48,856 
82 NEDAdri Van Der PoelCHEWeinmann-La Suisse-S.M.M. Uste..00:54:42  +  00:01:18=48,812 
83 SUIAlfred AckermannCHEWeinmann-La Suisse-S.M.M. Uste..00:54:42  +  00:01:18=48,812 
84 BELCarlo BomansCHEWeinmann-La Suisse-S.M.M. Uste..00:54:42  +  00:01:18=48,812 
85 SUIBeat BreuCHEWeinmann-La Suisse-S.M.M. Uste..00:54:42  +  00:01:18=48,812 
86 BELMichel DerniesCHEWeinmann-La Suisse-S.M.M. Uste..00:54:42  +  00:01:18=48,812 
87 BELJan GoessensCHEWeinmann-La Suisse-S.M.M. Uste..00:54:42  +  00:01:18=48,812 
88 BELPatrick RobeetCHEWeinmann-La Suisse-S.M.M. Uste..00:54:42  +  00:01:18=48,812 
89 SUIKurt SteinmannCHEWeinmann-La Suisse-S.M.M. Uste..00:54:42  +  00:01:18=48,812 
90 SUIThomas WegmüllerCHEWeinmann-La Suisse-S.M.M. Uste..00:54:42  +  00:01:18=48,812 
91 ITAMoreno ArgentinITAAriostea00:54:42  +  00:01:18=48,812 
92 ITAAdriano BaffiITAAriostea00:54:42  +  00:01:18=48,812 
93 ITADavide CassaniITAAriostea00:54:42  +  00:01:18=48,812 
94 ITABruno CenghialtaITAAriostea00:54:42  +  00:01:18=48,812 
95 ITARoberto ContiITAAriostea00:54:42  +  00:01:18=48,812 
96 ITAAlberto ElliITAAriostea00:54:42  +  00:01:18=48,812 
97 ITARodolfo MassiITAAriostea00:54:42  +  00:01:18=48,812 
98 ITAValerio PivaITAAriostea00:54:42  +  00:01:18=48,812 
99 ITAMarcello SiboniITAAriostea00:54:42  +  00:01:18=48,812 
100 FRACharly MottetFRAR.M.O.-Mavic-Liberia00:54:46  +  00:01:22=48,752 
101 FRAJean-Claude BagotFRAR.M.O.-Mavic-Liberia00:54:46  +  00:01:22=48,752 
102 FRAFrédéric BrunFRAR.M.O.-Mavic-Liberia00:54:46  +  00:01:22=48,752 
103 FRAÉric CaritouxFRAR.M.O.-Mavic-Liberia00:54:46  +  00:01:22=48,752 
104 FRAThierry ClaveyrolatFRAR.M.O.-Mavic-Liberia00:54:46  +  00:01:22=48,752 
105 FRAJean-Claude ColottiFRAR.M.O.-Mavic-Liberia00:54:46  +  00:01:22=48,752 
106 FRAThierry LaurentFRAR.M.O.-Mavic-Liberia00:54:46  +  00:01:22=48,752 
107 FRAPascal LinoFRAR.M.O.-Mavic-Liberia00:54:46  +  00:01:22=48,752 
108 BELMichel VermoteFRAR.M.O.-Mavic-Liberia00:54:46  +  00:01:22=48,752 
109 ITAClaudio ChiappucciITACarrera Jeans-Vagabond00:54:53  +  00:01:29=48,649 
110 ITAGuido BontempiITACarrera Jeans-Vagabond00:54:53  +  00:01:29=48,649 
111 PORAcacio da SilvaITACarrera Jeans-Vagabond00:54:53  +  00:01:29=48,649 
112 ITAMassimo GhirottoITACarrera Jeans-Vagabond00:54:53  +  00:01:29=48,649 
113 ITAAlessandro GiannelliITACarrera Jeans-Vagabond00:54:53  +  00:01:29=48,649 
114 ITAFlavio GiupponiITACarrera Jeans-Vagabond00:54:53  +  00:01:29=48,649 
115 SUIErich MächlerITACarrera Jeans-Vagabond00:54:53  +  00:01:29=48,649 
116 ITAGiancarlo PeriniITACarrera Jeans-Vagabond00:54:53  +  00:01:29=48,649 
117 ENGMaximilian SciandriITACarrera Jeans-Vagabond00:54:53  +  00:01:29=48,649 
118 BELClaude CriquielionBELLotto-Superclub00:55:11  +  00:01:47=48,384 
119 BELJohan BruyneelBELLotto-Superclub00:55:11  +  00:01:47=48,384 
120 BELPeter De ClercqBELLotto-Superclub00:55:11  +  00:01:47=48,384 
121 BELJos HaexBELLotto-Superclub00:55:11  +  00:01:47=48,384 
122 BELJohan MuseeuwBELLotto-Superclub00:55:11  +  00:01:47=48,384 
123 BELHendrik RedantBELLotto-Superclub00:55:11  +  00:01:47=48,384 
124 BELPeter RoesBELLotto-Superclub00:55:11  +  00:01:47=48,384 
125 BELWillem Van EyndeBELLotto-Superclub00:55:11  +  00:01:47=48,384 
126 BELPatrick VerschuerenBELLotto-Superclub00:55:11  +  00:01:47=48,384 
127 SUIGianni BugnoITAChateau d'Ax00:55:14  +  00:01:50=48,340 
128 ITAGuiseppe CalcaterraITAChateau d'Ax00:55:14  +  00:01:50=48,340 
129 ITAGiovanni FidanzaITAChateau d'Ax00:55:14  +  00:01:50=48,340 
130 ITARoberto GusmeroliITAChateau d'Ax00:55:14  +  00:01:50=48,340 
131 DDRMario KummerITAChateau d'Ax00:55:14  +  00:01:50=48,340 
132 DENTony RomingerITAChateau d'Ax00:55:14  +  00:01:50=48,340 
133 ITAMauro-Antonio SantaromitaITAChateau d'Ax00:55:14  +  00:01:50=48,340 
134 DDRJan SchurITAChateau d'Ax00:55:14  +  00:01:50=48,340 
135 ITAAlberto VolpiITAChateau d'Ax00:55:14  +  00:01:50=48,340 
136 ESPPedro DelgadoESPBanesto00:55:22  +  00:01:58=48,224 
137 ESPMarino MonjeESPBanesto00:55:22  +  00:01:58=48,224 
138 FRADominique ArnaudESPBanesto00:55:22  +  00:01:58=48,224 
139 ESPJulian GorospeESPBanesto00:55:22  +  00:01:58=48,224 
140 ESPMiguel IndurainESPBanesto00:55:22  +  00:01:58=48,224 
141 ESPLuis LukinESPBanesto00:55:22  +  00:01:58=48,224 
142 ESPJuan MartinezESPBanesto00:55:22  +  00:01:58=48,224 
143 ESPJesus RodriguezESPBanesto00:55:22  +  00:01:58=48,224 
144 COLAbelardo RondonESPBanesto00:55:22  +  00:01:58=48,224 
145 FRAJean-François BernardNLDToshiba00:55:39  +  00:02:15=47,978 
146 DENJohn CarlsenNLDToshiba00:55:39  +  00:02:15=47,978 
147 FRAChristian ChaubetNLDToshiba00:55:39  +  00:02:15=47,978 
148 GERAndreas KappesNLDToshiba00:55:39  +  00:02:15=47,978 
149 FRAPascal LanceNLDToshiba00:55:39  +  00:02:15=47,978 
150 FRARoland Le ClercNLDToshiba00:55:39  +  00:02:15=47,978 
151 FRAPhilippe LouviotNLDToshiba00:55:39  +  00:02:15=47,978 
152 FRAYvon MadiotNLDToshiba00:55:39  +  00:02:15=47,978 
153 FRADenis RouxNLDToshiba00:55:39  +  00:02:15=47,978 
154 ENGPhil AndersonNLDTVM00:56:26  +  00:03:02=47,312 
155 BELJohan CapiotNLDTVM00:56:26  +  00:03:02=47,312 
156 NEDMaarten DucrotNLDTVM00:56:26  +  00:03:02=47,312 
157 BELPatrick JacobsNLDTVM00:56:26  +  00:03:02=47,312 
158 SUIJörg MüllerNLDTVM00:56:26  +  00:03:02=47,312 
159 NEDMartin SchalkersNLDTVM00:56:26  +  00:03:02=47,312 
160 NEDEddy SchurerNLDTVM00:56:26  +  00:03:02=47,312 
161 NEDJan SiemonsNLDTVM00:56:26  +  00:03:02=47,312 
162 DENJesper SkibbyNLDTVM00:56:26  +  00:03:02=47,312 
163 ITAMarco GiovannettiFRASeur00:56:28  +  00:03:04=47,285 
164 ESPRoque de la CruzFRASeur00:56:28  +  00:03:04=47,285 
165 NEDMathieu HermansFRASeur00:56:28  +  00:03:04=47,285 
166 BELJean-Pierre HeynderickxFRASeur00:56:28  +  00:03:04=47,285 
167 ESPPablo MorenoFRASeur00:56:28  +  00:03:04=47,285 
168 ESPÁlvaro PinoFRASeur00:56:28  +  00:03:04=47,285 
169 ESPVicente RidauraFRASeur00:56:28  +  00:03:04=47,285 
170 PORJosé FerreiraFRASeur00:56:28  +  00:03:04=47,285 
171 ESPJosé UreaFRASeur00:56:28  +  00:03:04=47,285 
172 COLAlvaro MejiaCOLRyalcao-Postobon00:56:41  +  00:03:17=47,104 
173 COLJuan CastilloCOLRyalcao-Postobon00:56:41  +  00:03:17=47,104 
174 COLPablo HernandezCOLRyalcao-Postobon00:56:41  +  00:03:17=47,104 
175 COLCarlos JaramilloCOLRyalcao-Postobon00:56:41  +  00:03:17=47,104 
176 COLGerardo MoncadaCOLRyalcao-Postobon00:56:41  +  00:03:17=47,104 
177 COLReynel MontoyaCOLRyalcao-Postobon00:56:41  +  00:03:17=47,104 
178 COLWilliam PalacioCOLRyalcao-Postobon00:56:41  +  00:03:17=47,104 
179 COLWilliam PulidoCOLRyalcao-Postobon00:56:41  +  00:03:17=47,104 
180 COLOscar VargasCOLRyalcao-Postobon00:56:41  +  00:03:17=47,104 
181 URSDimitri KonychevITAAlfa Lum00:57:03  +  00:03:39=46,801 
182 URSDjamolidine AbduzhaparovITAAlfa Lum00:57:03  +  00:03:39=46,801 
183 URSNikolai GolovatenkoITAAlfa Lum00:57:03  +  00:03:39=46,801 
184 URSIvan IvanovITAAlfa Lum00:57:03  +  00:03:39=46,801 
185 URSVasily ZhdanovITAAlfa Lum00:57:03  +  00:03:39=46,801 
186 URSAsiat SaitovITAAlfa Lum00:57:03  +  00:03:39=46,801 
187 URSAlexandre TrubineITAAlfa Lum00:57:03  +  00:03:39=46,801 
188 URSPiotr UgrumovITAAlfa Lum00:57:03  +  00:03:39=46,801 
189 URSSergei UslaminITAAlfa Lum00:57:03  +  00:03:39=46,801 
190 COLFabio Parra PintoESPKelme-Ibexpress00:58:16  +  00:04:52=45,824 
191 ESPAntonio DiasESPKelme-Ibexpress00:58:16  +  00:04:52=45,824 
192 ESPAntonio EspejoESPKelme-Ibexpress00:58:16  +  00:04:52=45,824 
193 COLJosé FarfánESPKelme-Ibexpress00:58:16  +  00:04:52=45,824 
194 ESPMario Lara GalindoESPKelme-Ibexpress00:58:16  +  00:04:52=45,824 
195 COLNéstor MoraESPKelme-Ibexpress00:58:16  +  00:04:52=45,824 
196 COLNelson RodriguezESPKelme-Ibexpress00:58:16  +  00:04:52=45,824 
197 ESPJesús RosadoESPKelme-Ibexpress00:58:16  +  00:04:52=45,824 
198 ITAGiuseppe SaronniESPKelme-Ibexpress00:58:16  +  00:04:52=45,824 


Todays birthdays.

1877  Antoine Perrichon
1878  Auguste Berthault
1911  Théo Herckenrath
1924  Carlo Lafranchi
1931  Armand Di Caro
1937  Jean-Claude Lebaube
1951  Giovanni Battaglin
1961  Pascal Jules
1962  Jean-Claude Leclercq
1976  Janek Tombak
1978  Francisco Pérez
1983  Dries Devenyns




Visits: